GFSGBSN_prec_cloud_234.txt.gz
Cloud_Cover
48 3 0 0 0 11 27 0 0 0 0 0 0 0 1 37 10 6 48 100 100 53 100 100 45 5 80 95 100 24 92 100 100 100 99 78 100 100 51 100 100 99 100 100 100 47 100
0 0 0 0 0 0 0 0 0 0 0 0 0 0 0 0 1 5 4 56 90 5 26 5 100 100 14 18 98 100 5 33 100 100 100 100 98 100 33 44 80 100 100 100 100 100 100
7 5 0 0 0 0 9 0 0 0 0 0 0 0 0 0 0 0 2 5 0 3 5 5 5 10 5 6 5 5 78 54 100 99 26 54 100 100 76 99 100 95 18 18 100 100 100
64 0 2 0 0 1 4 2 1 0 0 0 0 0 0 0 0 0 0 0 0 5 4 0 4 2 4 5 5 3 1 23 32 93 100 67 99 99 100 87 100 100 98 5 74 99 100
0 0 0 0 0 1 5 8 0 0 0 20 28 0 0 0 0 0 0 0 0 0 0 0 1 2 4 0 0 5 2 0 4 4 65 100 100 63 90 100 100 46 5 2 100 6 100
2 0 0 0 0 1 0 4 0 0 5 1 0 0 0 0 0 0 0 0 0 0 0 0 0 0 0 0 0 0 0 0 0 0 4 63 18 60 96 8 100 94 30 33 68 43 99
0 0 0 0 0 0 0 1 0 0 0 0 0 0 0 0 0 0 0 0 0 0 0 0 0 0 0 0 0 0 0 0 0 0 0 0 1 0 98 100 2 100 100 62 55 99 100
0 0 0 0 0 0 2 2 0 0 0 0 0 0 0 0 0 0 0 0 0 1 1 0 0 0 0 0 0 0 0 0 0 0 0 0 0 3 45 48 100 36 7 97 100 100 100
0 0 0 2 2 0 0 2 0 0 0 0 0 0 0 0 0 1 1 0 1 3 3 0 0 0 0 0 0 0 0 0 0 0 0 0 0 0 0 9 8 97 2 7 100 100 100
0 0 0 0 0 4 0 0 0 0 0 0 0 0 0 0 0 0 1 0 0 17 36 0 0 0 0 0 0 0 4 4 0 0 4 0 0 0 5 0 3 0 43 16 92 100 100
5 4 0 0 1 0 0 0 0 0 0 0 0 0 0 0 0 4 2 0 0 50 6 0 0 0 0 0 0 0 0 0 5 23 25 3 6 2 32 5 0 0 7 59 5 49 100
5 39 4 0 0 0 0 0 0 0 0 0 0 0 0 0 29 12 0 0 30 84 1 0 0 0 0 0 0 1 0 27 4 44 14 3 6 31 73 78 35 2 73 6 78 90 70
5 20 92 8 5 2 0 0 0 0 0 0 0 0 1 0 32 0 0 1 49 26 0 0 0 0 0 0 4 5 3 47 32 12 12 87 0 34 33 100 20 8 100 100 62 100 65
44 5 5 5 5 0 0 1 0 0 0 0 0 0 4 7 4 0 6 8 31 0 0 0 0 0 0 2 4 5 2 10 87 64 80 63 88 10 100 100 48 100 42 60 100 82 4
100 22 14 10 5 5 1 0 0 0 0 0 0 1 33 1 2 5 40 100 30 0 0 0 0 0 0 0 3 0 3 5 15 5 88 76 14 6 1 100 100 50 100 8 100 100 100
100 100 92 92 5 5 4 2 0 0 0 0 1 12 12 0 45 4 12 52 3 0 0 0 5 2 5 4 8 61 6 40 5 54 79 33 3 34 4 60 56 100 100 100 98 100 97
100 100 100 100 100 69 5 5 5 3 0 0 0 7 23 0 9 6 94 16 4 0 0 1 3 5 3 46 87 75 81 98 37 69 86 64 15 90 85 18 2 23 53 14 86 100 82
100 100 100 100 100 90 14 5 5 5 0 1 3 45 4 0 32 50 68 5 0 0 0 0 0 2 48 81 52 33 67 100 68 100 99 5 8 5 9 69 8 98 100 98 11 16 100
100 100 100 100 100 100 100 94 15 5 5 5 31 55 10 6 86 74 8 3 0 0 0 0 0 0 4 6 86 5 5 29 83 52 86 42 37 17 0 25 58 78 100 100 100 83 43
100 100 100 100 100 100 100 100 100 75 65 10 29 78 66 38 38 6 6 3 0 0 0 0 0 1 4 50 71 11 4 0 3 5 42 7 24 97 18 39 100 70 5 87 100 100 100
100 100 100 100 100 99 80 100 100 100 100 99 77 71 15 67 87 78 5 5 1 3 4 0 0 5 5 5 5 5 5 0 0 0 4 100 98 87 92 89 100 100 93 3 8 26 100
100 100 100 100 100 100 100 100 100 100 100 100 100 100 96 5 100 45 13 17 5 5 5 4 5 5 5 5 60 19 5 2 5 0 2 25 23 97 5 5 18 100 100 71 100 67 5
100 100 100 100 100 100 100 100 100 100 100 100 100 100 100 86 96 99 58 95 5 3 5 6 3 3 15 20 58 6 5 5 4 5 5 17 12 39 4 4 47 1 0 73 62 93 62
100 100 100 100 100 100 100 80 95 100 100 100 100 100 100 100 36 73 88 96 20 5 5 16 30 32 5 5 2 0 2 2 3 3 15 5 12 54 8 43 38 0 20 72 72 79 68
100 100 100 100 100 100 100 100 100 100 100 100 100 100 100 100 67 8 48 100 36 8 78 88 88 92 5 21 44 5 1 5 3 0 3 5 53 88 99 70 7 0 0 2 16 4 100
100 100 100 100 100 100 100 100 100 100 100 100 100 100 100 100 100 60 99 78 33 28 52 63 56 5 76 77 35 98 75 7 5 0 97 100 100 100 100 100 96 3 11 89 63 19 15
100 100 100 100 100 100 100 100 100 100 100 100 100 100 100 100 100 100 100 93 32 20 53 91 100 85 79 90 100 98 63 93 62 93 64 95 94 91 74 100 44 44 27 45 96 27 30
100 100 100 100 100 100 100 100 100 100 100 100 100 100 100 98 100 100 100 100 91 17 99 50 45 70 89 91 96 98 92 79 65 14 70 100 95 5 20 85 99 100 95 84 88 21 35
100 100 100 100 100 100 100 100 100 100 100 100 100 100 90 75 100 100 100 83 73 5 34 56 19 76 96 97 97 72 94 61 13 30 4 24 34 62 98 88 79 100 100 100 100 97 83

GFSGBSN_prec_cloud_237.txt.gz
Cloud_Cover
45 0 0 0 0 11 92 0 0 0 0 0 0 0 1 5 5 89 100 100 94 100 77 100 100 100 100 100 100 100 46 100 100 100 44 17 98 96 50 84 80 22 100 100 100 100 100
1 2 0 0 0 2 29 0 0 0 0 0 0 0 0 0 4 5 100 100 100 100 100 71 94 14 34 9 96 5 99 100 100 100 99 97 48 91 98 42 75 83 79 99 100 100 95
95 71 2 0 0 0 3 1 0 0 0 0 0 0 0 0 0 5 5 100 36 5 90 92 100 100 100 5 6 92 75 99 93 100 100 100 100 99 5 34 100 46 14 25 100 100 100
94 9 0 0 0 4 0 0 1 0 0 0 0 0 0 0 0 0 2 3 4 80 77 5 5 5 6 79 93 6 100 18 35 5 98 98 89 100 100 100 73 58 5 7 100 100 100
0 0 2 0 0 2 15 1 0 0 0 0 0 0 0 0 0 0 0 0 0 1 5 5 5 5 5 5 47 7 66 97 82 5 5 32 31 22 88 100 99 80 4 1 66 100 100
95 23 0 1 0 10 0 5 0 0 0 0 0 0 0 0 0 0 0 0 0 0 0 0 4 5 5 3 3 21 5 0 39 100 3 0 0 1 2 8 94 100 98 7 0 98 100
0 4 0 13 2 4 0 0 0 0 0 0 0 0 0 0 0 0 0 0 0 0 0 0 0 0 0 0 0 3 5 5 0 0 1 4 0 0 1 5 2 100 15 11 38 49 93
0 0 0 0 9 0 0 0 3 0 0 0 0 0 0 0 0 0 0 0 0 0 0 0 0 0 0 0 0 0 0 0 0 0 0 0 0 0 0 0 0 2 94 20 41 100 99
0 0 0 9 2 4 2 0 3 0 0 0 0 0 0 0 0 0 0 0 0 0 0 0 0 0 0 0 0 0 0 0 0 0 0 0 0 0 0 2 1 0 0 73 100 100 100
4 4 3 1 1 1 3 0 0 0 0 0 0 0 0 0 0 0 0 0 0 0 1 0 0 0 0 0 0 0 0 0 0 0 0 0 0 0 0 3 90 57 0 0 69 100 100
100 11 5 5 0 10 8 2 5 0 0 0 0 0 0 0 0 0 0 0 0 0 0 0 0 0 0 0 0 0 0 0 0 0 0 0 0 0 0 0 98 97 90 0 0 5 100
100 100 23 4 5 0 0 0 0 0 0 0 0 0 0 0 1 0 0 0 3 22 0 0 0 0 0 0 0 0 0 0 0 0 0 0 0 3 0 0 14 9 98 53 5 1 13
100 100 100 69 1 2 1 0 0 0 0 0 0 0 0 0 2 0 0 0 2 0 0 0 0 0 0 0 0 0 0 0 1 0 0 0 0 0 7 59 67 100 85 6 5 83 80
100 100 94 100 29 4 5 5 0 0 0 0 0 0 0 1 0 0 0 1 0 0 0 0 0 0 0 0 0 0 0 0 0 0 3 0 0 26 79 100 18 100 100 98 81 100 0
100 13 97 100 100 13 5 5 5 5 0 0 0 0 0 0 0 0 32 10 3 0 0 0 0 0 0 0 0 0 0 0 2 0 23 8 2 0 77 36 73 8 12 97 100 83 31
100 100 30 100 100 100 100 88 5 0 0 0 0 0 0 0 0 0 7 56 1 0 0 0 0 0 0 0 0 0 0 5 2 5 90 5 17 0 3 1 88 100 100 100 100 73 38
100 100 100 100 100 100 100 100 99 4 5 1 3 3 0 0 0 0 6 67 0 0 0 0 0 0 0 0 1 0 0 3 21 83 10 8 4 0 0 20 2 100 97 100 100 100 100
100 100 100 100 97 100 100 100 100 100 60 5 3 59 0 0 7 46 36 0 0 0 0 0 0 0 4 0 0 1 0 54 53 5 63 5 2 23 0 4 5 74 100 100 98 99 100
100 100 100 100 100 100 100 100 100 100 84 24 36 24 1 0 20 42 11 1 0 0 0 0 0 0 0 0 2 5 0 0 2 63 5 5 5 9 0 0 3 90 20 100 100 100 100
100 100 100 100 100 100 100 100 100 100 100 100 100 83 22 20 25 5 4 0 0 1 1 0 0 0 0 0 6 3 0 0 0 0 0 0 0 4 44 26 13 33 10 97 100 100 92
100 100 100 100 100 100 98 94 100 100 100 100 100 100 100 99 38 6 5 5 0 5 5 0 2 0 2 2 0 0 0 0 0 0 0 5 35 81 65 72 13 5 0 51 50 84 100
100 100 100 100 100 100 100 96 100 100 100 87 29 50 97 100 100 98 69 88 5 5 5 5 38 40 0 0 1 1 0 0 0 0 0 0 4 5 0 0 0 0 0 61 79 99 100
100 100 100 100 100 100 100 100 83 97 100 100 87 100 100 64 100 100 100 100 26 5 21 5 16 28 5 0 3 2 0 0 0 0 0 4 4 5 4 2 1 1 0 0 0 65 100
100 100 100 100 100 100 100 100 100 100 95 94 100 90 45 100 100 100 100 100 100 5 5 18 85 100 77 5 0 0 0 0 0 0 0 2 5 32 4 5 62 0 0 2 5 52 25
100 100 100 100 100 100 100 100 100 100 100 98 100 100 100 100 100 100 100 100 31 6 5 26 61 76 94 5 5 4 4 0 0 0 0 6 97 96 99 17 1 0 3 4 2 4 9
100 100 100 100 100 100 100 100 100 100 100 100 100 100 100 100 100 100 100 100 63 19 8 7 92 84 24 32 5 17 6 0 1 0 1 28 20 94 86 100 94 61 12 5 7 7 5
100 100 100 100 100 100 100 100 100 100 100 100 100 100 100 100 100 100 100 100 19 5 5 5 6 6 59 40 5 5 5 5 4 5 5 2 10 71 100 100 96 100 94 54 92 25 6
100 100 100 100 100 100 100 100 100 100 100 100 100 100 100 100 100 100 100 100 38 12 5 5 5 5 5 79 5 5 63 30 24 2 2 5 5 5 15 27 20 60 95 95 84 71 96
100 100 100 100 100 100 100 100 100 100 100 100 100 100 100 100 100 100 100 100 48 32 11 96 7 22 72 5 51 60 11 38 5 5 0 4 3 90 62 3 4 51 100 92 82 6 6

GFSGBSN_prec_cloud_243.txt.gz
Cloud_Cover
1 2 0 0 0 0 72 31 0 2 2 0 16 32 0 0 3 17 100 100 100 100 55 100 100 100 84 90 51 92 42 100 100 100 100 100 79 100 100 100 92 8 100 96 100 100 100
100 53 30 0 0 0 4 97 39 0 0 24 0 0 0 0 0 7 100 100 100 100 100 100 100 100 55 100 33 6 5 29 100 100 79 100 99 98 98 88 20 98 100 26 100 100 100
100 95 84 0 0 0 8 0 1 0 0 70 2 0 0 0 0 2 7 100 100 100 100 71 100 100 100 100 48 100 99 42 93 40 42 6 35 22 94 30 4 22 100 100 87 100 100
0 14 4 0 0 0 0 0 0 0 0 1 0 0 0 0 0 0 11 100 100 100 100 100 100 100 100 100 100 100 75 8 18 99 39 53 5 13 5 21 24 1 2 98 100 100 98
2 11 1 7 0 0 0 0 0 0 0 0 0 0 0 0 0 0 0 0 73 100 100 100 100 100 100 66 100 96 100 100 12 27 78 100 50 15 29 6 58 51 4 4 93 100 100
96 100 86 1 0 0 0 0 0 0 0 0 0 0 0 0 0 0 0 0 1 15 99 100 97 99 100 100 99 72 100 94 72 100 100 43 23 99 64 14 0 0 4 0 0 51 74
0 7 1 0 0 1 0 0 0 0 0 0 0 0 0 0 0 0 0 0 0 0 0 0 8 100 100 100 100 100 100 100 99 55 97 100 45 4 18 100 93 36 1 0 0 9 8
0 0 0 0 15 10 61 2 5 0 0 0 0 0 0 0 0 0 0 0 0 0 0 0 0 0 10 96 100 100 87 73 95 67 38 100 100 42 2 4 3 75 100 18 0 0 22
5 4 1 0 1 66 94 23 2 0 2 0 0 0 0 0 0 0 0 0 0 0 0 0 0 0 0 0 1 23 19 13 15 98 50 7 6 48 100 44 5 1 0 0 0 0 0
83 5 5 3 1 12 48 1 2 0 0 0 0 0 0 0 0 0 0 0 0 0 0 0 0 0 0 0 0 0 0 0 0 3 5 5 5 5 5 23 10 5 1 0 0 0 0
100 100 92 8 5 13 50 2 0 0 0 0 0 0 0 0 0 0 0 0 0 0 0 0 0 0 0 0 0 0 0 0 0 0 0 0 0 0 0 0 0 0 0 0 0 0 3
100 100 100 100 80 20 83 74 1 0 0 0 0 0 0 0 0 0 0 0 0 0 0 0 0 0 0 0 0 0 0 0 0 0 0 0 0 0 0 0 0 0 0 0 0 0 0
100 100 100 100 59 79 8 72 49 0 0 0 0 0 0 0 0 0 0 0 0 0 0 0 0 0 0 0 0 0 0 0 0 0 0 0 0 0 0 0 0 0 0 2 0 2 17
100 100 100 100 100 100 61 21 43 43 0 0 0 0 0 0 0 0 0 0 0 0 0 0 0 0 0 0 0 0 0 0 0 0 2 5 0 0 0 0 0 0 0 6 76 5 5
100 100 100 100 100 100 99 24 5 39 100 5 4 0 0 0 0 0 0 0 0 0 0 0 0 0 0 0 0 0 0 5 5 0 1 5 4 0 0 0 0 0 0 4 5 26 99
100 100 100 100 100 100 100 97 98 42 86 100 54 18 0 0 0 0 2 2 0 0 0 0 0 0 0 0 0 0 0 5 0 0 0 2 5 0 0 0 4 2 4 5 5 27 34
100 100 100 100 100 100 100 100 98 9 5 99 100 76 0 0 0 1 2 4 0 0 0 0 0 0 0 0 0 0 0 0 0 0 0 0 1 0 0 1 5 3 4 4 62 87 59
100 100 100 100 100 100 100 100 100 100 100 81 100 100 31 5 5 56 12 0 0 0 0 0 0 0 0 0 0 0 0 0 0 0 0 0 0 5 0 0 5 5 1 4 76 31 35
100 100 100 100 100 100 100 100 100 100 99 100 91 94 100 100 100 62 26 1 0 0 0 0 0 0 0 0 0 0 0 0 0 0 0 0 0 1 0 6 1 0 0 5 29 62 67
100 100 100 100 100 100 100 100 100 100 100 100 94 100 100 100 90 100 50 6 2 1 2 0 1 0 0 0 0 0 0 0 0 0 0 0 0 0 0 0 1 0 0 0 1 5 5
100 100 100 100 100 100 100 100 100 100 100 100 100 98 100 100 100 78 30 92 29 5 5 44 50 5 4 3 0 0 0 0 0 0 0 0 2 3 2 0 4 4 0 0 0 0 4
100 100 100 100 100 100 100 100 100 100 100 100 100 100 100 100 100 100 98 100 93 98 50 17 71 31 16 5 4 0 0 0 5 0 0 0 0 0 0 0 0 0 0 0 0 0 0
100 100 100 100 100 100 100 100 100 100 100 100 100 100 100 88 100 100 100 100 100 98 69 6 58 100 67 72 5 1 0 0 0 0 3 4 0 4 4 0 0 0 0 5 0 0 0
100 100 100 100 100 100 100 100 100 100 100 100 100 100 100 100 100 100 100 100 100 100 100 100 100 100 100 54 5 5 4 0 0 0 0 0 0 3 5 1 0 0 0 5 4 5 5
100 100 100 100 100 100 100 100 100 100 100 100 100 100 100 100 100 100 100 100 100 100 100 100 100 100 100 100 69 8 5 0 0 0 0 5 0 5 5 40 1 0 18 5 26 4 5
100 100 100 100 100 100 100 100 100 100 100 100 100 100 100 100 100 100 100 100 100 100 100 100 100 100 100 100 34 18 20 5 5 0 0 0 3 6 94 100 72 1 5 5 5 52 100
100 100 100 100 100 100 100 100 100 100 100 100 100 100 100 100 100 100 100 100 100 100 100 100 100 100 100 100 55 94 81 13 5 7 5 35 71 64 35 100 7 5 5 3 80 6 3
100 100 100 100 100 100 100 100 100 100 100 100 100 100 100 100 100 100 100 100 100 100 100 100 100 100 100 100 98 93 100 41 8 8 5 5 29 53 59 100 54 5 56 5 2 0 1
100 100 100 100 100 100 100 100 100 100 100 100 100 100 100 100 100 100 100 100 100 100 100 100 100 100 100 100 99 100 100 43 42 38 5 4 0 5 5 3 0 0 0 0 0 0 5

GFSGBSN_prec_cloud_246.txt.gz
Cloud_Cover
100 47 100 71 0 0 7 100 73 20 2 8 2 1 0 0 0 1 5 82 100 100 100 100 100 100 100 60 65 58 97 100 100 100 100 100 100 100 100 100 100 100 100 100 100 100 100
100 64 100 100 0 0 47 8 13 0 0 1 0 0 0 0 0 0 0 2 100 100 100 100 100 100 92 96 15 100 85 10 100 100 100 100 100 100 100 100 100 100 100 100 100 100 100
100 2 89 100 0 0 0 11 11 0 0 0 0 0 0 0 0 0 0 0 4 100 100 100 100 99 84 100 94 12 17 5 6 76 55 100 100 64 100 55 38 100 100 60 50 97 79
100 2 24 1 0 0 16 0 1 67 2 0 0 0 0 0 0 0 0 0 0 0 92 100 100 100 94 100 100 100 6 6 5 5 5 91 34 5 100 98 15 18 87 81 14 30 5
100 75 88 100 19 3 10 80 0 45 1 0 0 0 0 0 0 0 0 0 0 0 0 44 100 100 100 100 100 100 100 100 82 6 5 5 5 16 5 50 8 5 6 6 73 5 5
100 100 85 96 19 90 100 100 92 14 0 0 0 0 0 0 0 0 0 0 0 0 0 2 97 96 99 100 100 86 58 100 100 93 53 17 0 66 87 70 16 34 59 3 19 10 0
100 100 98 0 61 100 100 100 81 46 0 0 0 0 0 0 0 0 0 0 0 0 0 0 6 100 100 86 87 100 100 45 100 94 100 98 59 4 100 74 4 53 49 30 100 91 43
100 100 100 4 2 41 100 100 100 24 0 0 0 0 0 0 0 0 0 0 0 0 0 0 0 33 100 100 100 46 100 100 34 61 97 100 86 100 50 93 64 28 1 26 100 94 18
100 100 100 85 7 38 43 100 97 2 6 0 0 0 0 0 0 0 0 0 0 0 0 0 0 0 0 48 100 100 81 20 100 100 74 54 97 50 64 51 85 99 100 54 100 8 4
100 100 100 94 5 44 5 8 71 24 0 0 0 0 0 0 0 0 0 0 0 0 0 0 0 0 0 0 1 26 96 95 98 66 8 94 100 25 34 63 5 5 5 3 5 84 100
100 100 100 100 100 46 40 3 3 0 0 0 0 0 0 0 0 0 0 0 0 0 0 0 0 0 0 0 0 0 0 0 3 1 3 0 19 96 100 100 72 36 5 8 3 67 64
100 100 100 100 100 100 82 5 6 24 0 0 0 0 0 0 0 0 0 0 0 0 0 0 0 0 0 0 0 0 0 0 0 0 0 0 0 0 0 2 3 1 0 0 1 0 0
100 100 100 100 100 100 100 90 5 87 38 0 0 0 0 0 0 0 0 0 0 0 0 0 0 0 0 0 0 0 0 0 1 0 2 0 0 0 0 0 0 0 0 2 0 0 0
100 100 100 100 100 100 100 100 55 58 97 88 0 0 0 0 0 0 0 0 0 0 0 0 0 0 0 0 0 0 0 1 0 0 5 4 0 0 0 0 0 0 0 4 5 5 4
100 100 100 100 100 100 100 100 100 12 84 32 78 0 0 0 0 0 0 0 0 0 0 0 0 0 0 0 0 0 2 4 0 0 1 5 2 0 0 0 0 0 0 4 5 5 72
100 100 100 100 100 100 100 100 100 89 26 19 30 83 1 0 0 0 2 0 0 0 0 0 0 0 0 0 0 0 0 1 0 0 0 1 0 0 0 5 5 0 0 7 5 26 12
100 100 100 100 100 100 100 100 100 100 100 47 34 68 62 5 1 0 1 3 0 0 0 0 0 0 0 0 0 0 0 0 0 0 0 0 1 0 0 1 1 3 0 5 5 39 94
100 100 100 100 100 100 100 100 100 100 100 98 5 35 11 43 5 64 6 0 0 0 0 0 0 0 0 0 0 0 0 0 0 0 0 0 0 2 0 0 5 0 0 0 5 19 6
100 100 100 100 100 100 100 100 100 100 100 100 94 95 5 6 81 94 13 0 0 0 0 0 0 0 0 0 0 0 0 0 0 0 0 0 0 1 3 3 5 5 1 0 3 33 67
100 100 100 100 100 100 100 100 100 100 100 100 100 99 10 96 82 100 100 36 7 5 3 0 0 0 0 0 0 0 0 0 0 0 0 0 0 0 0 0 0 0 0 0 0 5 5
100 100 100 100 98 100 100 100 100 100 100 100 100 100 100 100 100 66 65 100 99 94 19 5 4 0 0 0 0 0 0 0 0 0 0 0 2 1 0 0 0 0 0 0 0 0 2
100 100 100 100 100 100 100 100 100 100 100 100 100 100 100 100 100 100 78 100 100 100 100 91 5 5 5 5 5 0 0 0 0 0 0 0 2 0 4 0 0 0 0 0 0 0 0
100 100 100 100 100 100 100 100 100 100 100 100 100 100 100 100 100 100 100 100 100 100 99 100 100 96 39 25 5 5 5 4 4 0 0 0 0 4 4 0 0 0 0 1 4 5 1
100 100 100 100 100 100 100 100 100 100 100 100 100 100 100 100 100 100 100 100 100 100 92 85 100 100 98 97 86 52 6 5 5 4 5 8 5 4 5 1 0 0 0 0 5 4 5
100 100 100 100 100 100 100 100 100 100 100 100 100 100 100 100 100 100 100 100 100 100 100 100 100 100 100 100 100 100 44 5 4 1 1 10 1 14 5 11 0 0 3 5 5 5 5
100 100 100 100 100 100 100 100 100 100 100 100 100 100 100 100 100 100 100 100 100 100 100 100 100 100 100 100 100 100 92 6 4 5 5 5 5 5 76 51 73 0 5 9 34 16 5
100 100 100 100 100 100 100 100 100 100 100 100 100 100 100 100 100 100 100 100 100 100 100 100 100 100 100 100 100 100 100 68 4 47 98 100 57 29 30 95 6 0 2 5 5 3 5
100 100 100 100 100 100 100 100 100 100 100 100 100 100 100 100 100 100 100 100 100 100 100 100 100 100 100 100 100 100 100 100 22 100 100 100 86 66 95 98 72 1 2 0 1 0 1
100 100 100 100 100 100 100 100 100 100 100 100 100 100 100 100 100 100 100 100 100 100 100 100 100 100 100 100 100 100 100 100 44 100 82 6 5 5 2 35 5 4 2 2 0 0 0